Погода Никольское

Погода Никольское : погода сейчас, прогноз погоды и архив. Всё, что Вы хотите узнать о погоде Никольское!

Хотите узнать прогноз погоды Никольское? Тогда Вам сюда: Погода Никольское

Поиск расширенной информации на нашем сайте:

Полезная информация: Бомба третий ряд по очень низкой цене!
теплообменник воды в бассейне

Другие новости

Новости СМИ2

Главная страница сайта

Новости сайта

02.10.2013

Напоминаем, что на нашем новом сайте вы можете получить высокодетализированные прогнозы погоды по пунктам России, СНГ и мира (включающие важные для авиации метеовеличины, такие как направление и скорость ветра, видимость, явления погоды, количество и форма облачности, нижняя и верхняя граница облачности), а также ознакомиться с разнообразными материалами по авиационной метеорологии и подборкой полезных ссылок на эту тему.

Сайт Метеоцентр.Азия посвящён разработке технологий оптимизации авиаметеорологического обслуживания, включая проектирование и перспективное создание нескольких автоматизированных авиаметеорологических систем:
- система выпуска высокодетальных прогностических карт явлений погоды для нижнего воздушного пространства по России и ближнему зарубежью;
- система верификации прогнозов TAF (выпускаемых синоптиками официальных АМСГ РФ и ближнего зарубежья) и AUTOTAF (выпускаемых сайтом Метеоцентр.Азия) - выявление ошибок, онлайн-сопоставление с фактической погодой METAR, автоматическое внесение коррективов в прогнозы при резком отклонении фактической погоды от прогноза, подсчёт оправдываемости прогнозов по элементам и в целом;
- система обработки, анализа и отображения авиаметеорологической информации для применения провайдерами метеорологической информации.

Рекомендуем: для Вас архив аудиокниг в UA-IX

Погода Никольское - сегодня

Время (UTC), дата Ветер
(°,м/с) 
Видим.   Явления Облачность Т
(°С)
Тd
(°С)
f(%) Тe
(°С)
Pmin
(гПа)
dP
(гПа)
Po
(мм)
O2
(г/м3)
Тmin Tmax R s Состояние
почвы
03 26.04.17 350 (С) 7-11{11}  20000 м    8/8 600 м 
[Cu Sc]
+2.5 -3.9 63 -1  1007.7  0.3  754  302           
06 26.04.17 350 (С) 8-11{12}  20000 м    6/6 600 м 
[Cu Sc]
+1.8 -4 65 -2  1007.9  0.2  754  302           
09 26.04.17 360 (С) 6{12}  20000 м    8/8 600 м 
[Cu Sc]
+0.1 -4.1 73 -3  1009.1  1.2  755  305    +3       
12 26.04.17 350 (С) 20000 м    9/9 600 м 
[Sc]
+0.1 -4.3 72 -3  1009.6  0.4  755  305           
15 26.04.17 340 (С) 20000 м    9/9 600 м 
[Sc]
+0 -4.2 73 -3  1009.6  755  305           
18 26.04.17 350 (С) 20000 м    8/8 600 м 
[Sc]
-0 -4.6 71 -3  1009.9  0.4  756  305           
21 26.04.17 330 (СЗ) 20000 м    3/3 600 м 
[Cu hum]
+1.7 -4 66 1010.3  0.4  756  303  -0.6      мокрый или
старый снег
50-90% 
00 27.04.17 290 (З) 20000 м    1/1 600 м 
[Cu hum]
+3.6 -3.5 60 +3  1010.3  -0.1  756  301           
03 27.04.17 270 (З) 20000 м    1/1 600 м 
[Cu hum]
+4 -2.6 62 +3  1010.4  0.2  756  301           
06 27.04.17 220 (ЮЗ) 20000 м    1/1 600 м 
[Cu hum]
+3.6 -1.9 67 +2  1010.2  -0.2  756  301           
09 27.04.17 130 (ЮВ) 20000 м    3/3 600 м 
[Cu hum]
+1.1 -2.8 75 1010.3  756  304    +4.1       
12 27.04.17 110 (В) 20000 м    4/4 600 м 
[Sc]
-0.2 -3.3 80 -4  1009  -1.3  755  305           
15 27.04.17 130 (ЮВ) 20000 м    4/4 600 м 
[Sc]
-0.2 -4.5 73 -3  1006.8  -2.1  753  304           
18 27.04.17 110 (В) 8-14{15}  20000 м    9/9 600 м 
[Sc]
+1 -3.6 71 -3  1002.3  -4.5  750  302           
21 27.04.17 100 (В) 11-20{20}  20000 м    10/10 600 м 
[Sc]
+1.2 -1.4 83 -4  996.9  -5.4  746  299  -0.9      мокрый или
старый снег
50-90% 
00 28.04.17 090 (В) 14-19{23}  4000 м  слаб. ливневой дождь со снегом  10/10 300 м кучево-дожд. 
[Cb cap]
+1.7 +0.7 93 -4  990.7  -6.1  741  297           
03 28.04.17 100 (В) 13-22{24}  4000 м  слаб. ливневой дождь со снегом  10/10 300 м кучево-дожд. 
[Cb cap]
+2 +0.9 92 -3  984.2  -6.4  737  294           
06 28.04.17 100 (В) 12-19{22}  4000 м  слаб. ливневой дождь  10/10 300 м кучево-дожд. 
[Cb cap]
+2 +0.9 92 -3  979.2  -4.9  733  293           
09 28.04.17 090 (В) 13-22{22}  4000 м  слаб. ливневой дождь  10/10 300 м кучево-дожд. 
[Cb cap]
+1.8 +0.8 93 -3  975.9  -3.2  730  292    +2.1     
12 28.04.17 090 (В) 8-12{22}  4000 м  слаб. ливневой дождь  10/10 300 м кучево-дожд. 
[Cb cap]
+1.2 +0.3 94 -3  973.9  -2  729  292           
15 28.04.17 210 (ЮЗ) 8-11{14}  4000 м  слаб. ливневой дождь  10/10 300 м кучево-дожд. 
[Cb cap]
+1.7 +0.7 93 -2  974.8  0.9  729  292           
18 28.04.17 170 (Ю) 7-11{14}  20000 м  {ливн. осадки}  10/10 600 м 
[Sc]
+2.3 -0.3 83 -1  976.8  2.1  731  292           
21 28.04.17 140 (ЮВ) 7-11{12}  20000 м  {ливн. осадки}  6/6 600 м 
[Sc]
+1.6 -0.1 88 -2  979.4  2.5  733  294  +1    мокрый или
старый снег
50-90% 
00 29.04.17 130 (ЮВ) 4{11}  20000 м    6/6 600 м 
[Cu Sc]
+4.5 +0.7 76 +3  981.3  734  291  +0.7         
03 29.04.17 100 (В) 6{13}  20000 м    8/8 600 м 
[Sc]
+3.9 +0 76 +1  983.5  2.1  736  292           
Время (UTC), дата Ветер
(°,м/с) 
Видим.   Явления Облачность Т
(°С)
Тd
(°С)
f(%) Тe
(°С)
Pmin
(гПа)
dP
(гПа)
Po
(мм)
O2
(г/м3)
Тmin Tmax R s Состояние
почвы

Для получения пояснительной информации подведите курсор к названию столбца.

ПОГОДА Никольское - архив

Всё, что Вы хотите узнать о погоде Никольское - удобно и подробно!

Выберите нужную дату (начиная с 1 января 2015* года) и нажмите кнопку "Найти".
Будут отображены архивные сводки погоды по пункту Никольское, начиная с указанной даты.


Отображать данные в формате CSV (для использования в таблицах Excel)


Внимание! Наш архив погоды предназначен исключительно для личного некоммерческого использования в познавательных целях. Если Вам необходимы официальные справки о состоянии погоды (для производственных, юридических, коммерческих и т.п. целей), обращайтесь в органы Росгидромета.

*Примечание: данная дата относится к архиву по метеостанциям СССР (Россия, СНГ, Балтия).
Архив по метеостанциям Зарубежной Европы и Азии (кроме Китая) хранится 10 дней, по другим регионам земного шара (Китай, Африка, Америка, Австралия, Океания) - 1 день.

Никольское - район местоположения метеостанции


Название, широта, долгота, высота метеостанции:
Никольское 55.2°ш. 166°д. 18 м над ур. моря [Российская Федерация]

Дополнительная информация

В oтличие oт бoльшинства пoгoдных сайтoв мы публикуем пoдрoбную метеoинфoрмацию в детальнoм прoфессиoнальнoм фoрмате.

Характеристики температуры и влажнoсти вoздуха измеряются на высoте 2 м в тени вдали oт зданий и деревьев.
Скoрoсть ветра измеряется на высoте 10 м (на урoвне рoста челoвека скoрoсть ветра ниже в 1.5-2 раза). Если метеoстанция нахoдится в гoрoде или в лесу, тo скoрoсть ветра занижена на 2-4 м/с пo сравнению с oткрытым местoм. Скoрoсть ветра над акватoриями крупных рек и oзёр, а также на вершинах хoлмoв на 2-5 м/с выше, чем в oбычных услoвиях.
Атмoсфернoе давление в разных тoчках местнoсти мoжет значительнo oтличаться oт давления на метеoстанции, в зависимoсти oт услoвий рельефа (при пoдъёме на 10 м давление пoнижается примернo на 1 мм рт.ст.).